الصفحة الرئيسية
METAR-TAF:

METAR-TAF

مطار :

مقاطعة ستانتون, كانساس, الولايات المتحدة

دائرة عرض: 37-35-07N, خط طول: 101-43-56W, ارتفاع: 1013 متر

مراقبة الطقس الحالي

تاريخ ووقت الإصدار 27 دقيقة قبل الساعة 23:35UTC
ريح 3 عقدة من الشمال الغربي
درجة الحرارة 8°درجة مئوية
الرطوبة 36%
ضغط 1028 hPa
الرؤية: 16.1 كم
سماء صافية

METAR: KJHN 152335Z AUTO 31003KT 10SM CLR 08/M06 A3036 RMK AO2 T00801064

زمن: 19:02 (00:02 UTC)


TAF: مفقودة

أرصاد الطقس والتوقعات من أكثر من 4000 مطار (تقارير الطقس للمطار METAR والتنبؤ بالطقس بالمطارTAF).

المحطات المتاحة هي النقط الصفراء والحمراء على الخريطة.

حرك المؤشر فوق النقطة لمعرفة اسم المحطة.

ثم انقر لمعرفة أرصاد وتوقعات الطقس.

لتغيير الخارطة: اضغط على الأزرار الخضراء مع رمز الصليب الأسود للتكبير. على الزر الأخضر مع شرطة للتصغير، أو على الأسهم الخضراء للخرائط المجاورة.


METAR-TAF: